QPF
0.00 0.00 0.00 0.00 0.00 0.00 0.00 0.00 0.00 0.00 0.00 0.00 0.00 0.00 0.00 0.00 0.00 0.00 0.00 0.00 0.00 0.00 0.00 0.00 0.00 0.01 0.01 0.00 0.00 0.00 0.00 0.00 0.00 0.00 0.00 0.00 0.00 0.00 0.01 0.00 0.00 0.00 0.00 0.00 0.00 0.00 0.00 0.00 0.00
0.00 0.00 0.00 0.00 0.00 0.00 0.00 0.00 0.00 0.00 0.00 0.00 0.00 0.00 0.00 0.00 0.00 0.00 0.00 0.00 0.00 0.00 0.00 0.00 0.00 0.00 0.00 0.00 0.00 0.00 0.00 0.00 0.00 0.00 0.00 0.00 0.00 0.00 0.01 0.00 0.00 0.00 0.00 0.00 0.00 0.00 0.00 0.00 0.00
0.00 0.00 0.00 0.00 0.00 0.00 0.00 0.00 0.00 0.00 0.00 0.00 0.00 0.00 0.00 0.00 0.00 0.00 0.00 0.00 0.00 0.00 0.00 0.00 0.00 0.00 0.00 0.00 0.00 0.00 0.00 0.00 0.00 0.00 0.00 0.00 0.00 0.00 0.00 0.00 0.00 0.00 0.00 0.00 0.00 0.00 0.00 0.00 0.00
0.00 0.00 0.00 0.00 0.00 0.00 0.00 0.00 0.00 0.00 0.00 0.00 0.00 0.00 0.00 0.00 0.00 0.00 0.00 0.00 0.00 0.00 0.00 0.00 0.00 0.00 0.00 0.00 0.00 0.00 0.00 0.00 0.00 0.00 0.00 0.00 0.00 0.00 0.00 0.00 0.00 0.00 0.00 0.00 0.00 0.00 0.00 0.00 0.00
0.00 0.00 0.00 0.00 0.00 0.00 0.00 0.00 0.00 0.00 0.00 0.00 0.00 0.00 0.00 0.00 0.00 0.00 0.00 0.00 0.00 0.00 0.00 0.00 0.00 0.00 0.00 0.01 0.01 0.00 0.00 0.00 0.00 0.00 0.00 0.00 0.00 0.00 0.00 0.00 0.00 0.00 0.00 0.00 0.00 0.00 0.00 0.00 0.00
0.00 0.00 0.00 0.00 0.00 0.00 0.00 0.00 0.00 0.00 0.00 0.00 0.00 0.00 0.00 0.00 0.00 0.00 0.00 0.00 0.00 0.00 0.00 0.00 0.00 0.00 0.00 0.01 0.01 0.01 0.00 0.01 0.01 0.01 0.01 0.04 0.03 0.00 0.00 0.00 0.00 0.00 0.00 0.00 0.00 0.00 0.00 0.00 0.00
0.00 0.00 0.00 0.00 0.00 0.00 0.00 0.00 0.00 0.00 0.00 0.00 0.00 0.00 0.00 0.00 0.00 0.00 0.00 0.00 0.00 0.00 0.00 0.00 0.00 0.00 0.00 0.00 0.00 0.01 0.01 0.01 0.01 0.01 0.01 0.01 0.02 0.01 0.00 0.00 0.00 0.00 0.00 0.00 0.00 0.00 0.00 0.00 0.00
0.00 0.00 0.00 0.00 0.00 0.00 0.00 0.00 0.00 0.00 0.00 0.00 0.00 0.00 0.00 0.00 0.00 0.00 0.00 0.00 0.00 0.00 0.00 0.00 0.00 0.00 0.00 0.00 0.00 0.01 0.01 0.00 0.00 0.00 0.00 0.00 0.01 0.00 0.00 0.00 0.00 0.00 0.00 0.00 0.00 0.00 0.00 0.00 0.00
0.00 0.00 0.00 0.00 0.00 0.00 0.00 0.00 0.00 0.00 0.00 0.00 0.00 0.00 0.00 0.00 0.00 0.00 0.00 0.00 0.00 0.00 0.00 0.00 0.00 0.00 0.00 0.00 0.00 0.00 0.02 0.02 0.01 0.02 0.02 0.02 0.03 0.03 0.00 0.00 0.00 0.00 0.00 0.00 0.00 0.00 0.00 0.00 0.00
0.00 0.00 0.00 0.00 0.00 0.00 0.00 0.00 0.00 0.00 0.00 0.00 0.00 0.00 0.00 0.00 0.00 0.00 0.00 0.00 0.00 0.00 0.00 0.00 0.00 0.00 0.00 0.00 0.00 0.00 0.01 0.03 0.05 0.04 0.03 0.02 0.03 0.02 0.00 0.00 0.00 0.00 0.00 0.00 0.00 0.00 0.00 0.00 0.00
0.00 0.00 0.00 0.00 0.00 0.00 0.00 0.00 0.00 0.00 0.00 0.00 0.00 0.00 0.00 0.00 0.00 0.00 0.00 0.00 0.00 0.00 0.00 0.00 0.00 0.00 0.00 0.00 0.00 0.00 0.00 0.02 0.04 0.02 0.02 0.02 0.01 0.00 0.00 0.00 0.00 0.00 0.00 0.00 0.00 0.00 0.00 0.00 0.00
0.00 0.00 0.00 0.00 0.00 0.00 0.00 0.00 0.00 0.00 0.00 0.00 0.00 0.00 0.00 0.00 0.00 0.00 0.00 0.00 0.00 0.00 0.00 0.00 0.00 0.00 0.00 0.00 0.00 0.00 0.00 0.01 0.01 0.00 0.01 0.02 0.02 0.01 0.01 0.01 0.00 0.00 0.00 0.00 0.00 0.00 0.00 0.00 0.00
0.00 0.00 0.00 0.00 0.00 0.00 0.00 0.00 0.00 0.00 0.00 0.00 0.00 0.00 0.00 0.00 0.00 0.00 0.00 0.00 0.00 0.00 0.00 0.00 0.00 0.00 0.00 0.00 0.00 0.00 0.00 0.00 0.00 0.00 0.00 0.00 0.01 0.03 0.01 0.01 0.00 0.00 0.00 0.00 0.00 0.00 0.00 0.00 0.00
0.00 0.00 0.00 0.00 0.00 0.00 0.00 0.00 0.00 0.00 0.00 0.00 0.00 0.00 0.00 0.00 0.00 0.00 0.00 0.00 0.00 0.00 0.00 0.00 0.00 0.00 0.00 0.00 0.00 0.00 0.00 0.00 0.00 0.00 0.00 0.00 0.00 0.00 0.00 0.00 0.00 0.00 0.00 0.00 0.00 0.00 0.00 0.00 0.00
0.00 0.00 0.00 0.00 0.00 0.00 0.00 0.00 0.00 0.00 0.00 0.00 0.00 0.00 0.00 0.00 0.00 0.00 0.00 0.00 0.00 0.00 0.00 0.00 0.00 0.00 0.00 0.00 0.00 0.00 0.00 0.00 0.00 0.00 0.00 0.00 0.00 0.00 0.00 0.00 0.00 0.00 0.00 0.00 0.00 0.00 0.00 0.00 0.00
0.00 0.00 0.00 0.00 0.00 0.00 0.00 0.00 0.00 0.00 0.00 0.00 0.00 0.00 0.00 0.00 0.00 0.00 0.00 0.00 0.00 0.00 0.00 0.00 0.00 0.00 0.00 0.00 0.00 0.00 0.00 0.00 0.00 0.00 0.00 0.00 0.00 0.00 0.00 0.00 0.00 0.00 0.00 0.00 0.00 0.00 0.00 0.00 0.00
0.00 0.00 0.00 0.00 0.00 0.00 0.00 0.00 0.00 0.00 0.00 0.00 0.00 0.00 0.00 0.00 0.00 0.00 0.00 0.00 0.00 0.00 0.00 0.00 0.00 0.00 0.00 0.00 0.00 0.00 0.00 0.00 0.00 0.00 0.00 0.00 0.00 0.00 0.00 0.00 0.00 0.00 0.00 0.00 0.00 0.00 0.00 0.00 0.00
0.00 0.00 0.00 0.00 0.00 0.00 0.00 0.00 0.00 0.00 0.00 0.00 0.00 0.00 0.00 0.00 0.00 0.00 0.00 0.00 0.00 0.00 0.00 0.00 0.00 0.00 0.00 0.00 0.00 0.00 0.00 0.00 0.00 0.00 0.00 0.00 0.00 0.00 0.00 0.00 0.00 0.00 0.00 0.00 0.00 0.00 0.00 0.00 0.00
0.00 0.00 0.00 0.00 0.00 0.00 0.00 0.00 0.00 0.00 0.00 0.00 0.00 0.00 0.00 0.00 0.00 0.00 0.00 0.00 0.00 0.00 0.00 0.00 0.00 0.00 0.00 0.00 0.00 0.00 0.00 0.00 0.00 0.00 0.00 0.00 0.00 0.00 0.00 0.00 0.00 0.00 0.00 0.00 0.00 0.00 0.00 0.00 0.00
0.00 0.00 0.00 0.00 0.00 0.00 0.00 0.00 0.00 0.00 0.00 0.00 0.00 0.00 0.00 0.00 0.00 0.00 0.00 0.00 0.00 0.00 0.00 0.00 0.00 0.00 0.00 0.00 0.00 0.00 0.00 0.00 0.00 0.00 0.00 0.00 0.00 0.00 0.00 0.00 0.00 0.00 0.00 0.00 0.00 0.00 0.00 0.00 0.00
0.00 0.00 0.00 0.00 0.00 0.00 0.00 0.00 0.00 0.00 0.00 0.00 0.00 0.00 0.00 0.00 0.00 0.00 0.00 0.00 0.00 0.00 0.00 0.00 0.00 0.00 0.00 0.00 0.00 0.00 0.00 0.00 0.00 0.00 0.00 0.00 0.00 0.00 0.00 0.00 0.00 0.00 0.00 0.00 0.00 0.00 0.00 0.00 0.00
0.00 0.00 0.00 0.00 0.00 0.00 0.00 0.00 0.00 0.00 0.00 0.00 0.00 0.00 0.00 0.00 0.00 0.00 0.00 0.00 0.00 0.00 0.00 0.00 0.00 0.00 0.00 0.00 0.00 0.00 0.00 0.00 0.00 0.00 0.00 0.00 0.00 0.00 0.00 0.00 0.00 0.00 0.00 0.00 0.00 0.00 0.00 0.00 0.00
0.00 0.00 0.00 0.00 0.00 0.00 0.00 0.00 0.00 0.00 0.00 0.00 0.00 0.00 0.00 0.00 0.00 0.00 0.00 0.00 0.00 0.00 0.00 0.00 0.00 0.00 0.00 0.00 0.00 0.00 0.00 0.00 0.00 0.00 0.00 0.00 0.00 0.00 0.00 0.00 0.00 0.00 0.00 0.00 0.00 0.00 0.00 0.00 0.00
0.00 0.00 0.00 0.00 0.00 0.00 0.00 0.00 0.00 0.00 0.00 0.00 0.00 0.00 0.00 0.00 0.00 0.00 0.00 0.00 0.00 0.00 0.00 0.00 0.00 0.00 0.00 0.00 0.00 0.00 0.00 0.00 0.00 0.00 0.00 0.00 0.00 0.00 0.00 0.00 0.00 0.00 0.00 0.00 0.00 0.00 0.00 0.00 0.00
0.00 0.00 0.00 0.00 0.00 0.00 0.00 0.00 0.00 0.00 0.00 0.00 0.00 0.00 0.00 0.00 0.00 0.00 0.00 0.00 0.00 0.00 0.00 0.00 0.00 0.00 0.00 0.00 0.00 0.00 0.00 0.00 0.00 0.00 0.00 0.00 0.00 0.00 0.00 0.00 0.00 0.00 0.00 0.00 0.00 0.00 0.00 0.00 0.00
0.00 0.00 0.00 0.00 0.00 0.00 0.00 0.00 0.00 0.00 0.00 0.00 0.00 0.00 0.00 0.00 0.00 0.00 0.00 0.00 0.00 0.00 0.00 0.00 0.00 0.00 0.00 0.00 0.00 0.00 0.00 0.00 0.00 0.00 0.00 0.00 0.00 0.00 0.00 0.00 0.00 0.00 0.00 0.00 0.00 0.00 0.00 0.00 0.00
0.00 0.00 0.00 0.00 0.00 0.00 0.00 0.00 0.00 0.00 0.00 0.00 0.00 0.00 0.00 0.00 0.00 0.00 0.00 0.00 0.00 0.00 0.00 0.00 0.00 0.00 0.00 0.00 0.00 0.00 0.00 0.00 0.00 0.00 0.00 0.00 0.00 0.00 0.00 0.00 0.00 0.00 0.00 0.00 0.00 0.00 0.00 0.00 0.00
0.00 0.00 0.00 0.00 0.00 0.00 0.00 0.00 0.00 0.00 0.00 0.00 0.00 0.00 0.00 0.00 0.00 0.00 0.00 0.00 0.00 0.00 0.00 0.00 0.00 0.00 0.00 0.00 0.00 0.00 0.00 0.00 0.00 0.00 0.00 0.00 0.00 0.00 0.00 0.00 0.00 0.00 0.00 0.00 0.00 0.00 0.00 0.00 0.00
0.00 0.00 0.00 0.00 0.00 0.00 0.00 0.00 0.00 0.00 0.00 0.00 0.00 0.00 0.00 0.00 0.00 0.00 0.00 0.00 0.00 0.00 0.00 0.00 0.00 0.00 0.00 0.00 0.00 0.00 0.00 0.00 0.00 0.00 0.00 0.00 0.00 0.00 0.00 0.00 0.00 0.00 0.00 0.00 0.00 0.00 0.00 0.00 0.00
0.00 0.00 0.00 0.00 0.00 0.00 0.00 0.00 0.00 0.00 0.00 0.00 0.00 0.00 0.00 0.00 0.00 0.00 0.00 0.00 0.00 0.00 0.00 0.00 0.00 0.00 0.00 0.00 0.00 0.00 0.00 0.00 0.00 0.00 0.00 0.00 0.00 0.00 0.00 0.00 0.00 0.00 0.00 0.00 0.00 0.00 0.00 0.00 0.00
MSLP
1015.93 1015.66 1015.20 1014.59 1014.13 1013.52 1014.01 1014.90 1015.19 1015.04 1015.07 1015.53 1015.60 1015.27 1015.00 1015.20 1015.36 1016.32 1017.21 1017.46 1017.80 1017.79 1018.27 1018.80 1019.04 1019.19 1019.51 1019.86 1020.23 1020.41 1020.50 1020.61 1020.74 1020.87 1020.98 1021.10 1021.16 1021.16 1021.28 1021.37 1021.35 1021.42 1021.39 1021.59 1021.66 1021.75 1021.74 1021.57 1021.55
1015.77 1015.48 1014.84 1014.14 1013.50 1013.28 1014.22 1015.00 1015.00 1015.25 1015.54 1015.73 1015.77 1015.58 1015.33 1015.71 1016.24 1016.64 1017.06 1017.89 1018.13 1017.98 1018.24 1018.54 1019.21 1019.33 1019.55 1019.88 1020.24 1020.47 1020.57 1020.70 1020.83 1020.98 1021.10 1021.21 1021.24 1021.31 1021.41 1021.46 1021.54 1021.62 1021.64 1021.86 1021.98 1022.08 1022.07 1021.92 1021.86
1015.92 1015.46 1014.25 1013.95 1013.86 1013.72 1014.36 1015.07 1015.16 1015.63 1015.82 1015.63 1015.57 1015.94 1015.92 1016.38 1016.87 1017.31 1018.07 1018.06 1018.19 1018.29 1018.51 1018.75 1019.36 1019.48 1019.65 1019.98 1020.35 1020.57 1020.68 1020.81 1020.97 1021.12 1021.26 1021.38 1021.41 1021.41 1021.49 1021.63 1021.74 1021.79 1021.95 1022.10 1022.29 1022.39 1022.33 1022.30 1022.20
1015.63 1015.07 1015.05 1014.01 1014.20 1014.99 1015.01 1015.28 1015.52 1015.58 1015.83 1015.91 1015.83 1015.74 1016.76 1017.82 1017.87 1018.42 1018.54 1018.35 1018.23 1018.42 1018.71 1019.19 1019.66 1019.72 1019.83 1020.06 1020.40 1020.67 1020.84 1020.97 1021.09 1021.19 1021.27 1021.35 1021.40 1021.51 1021.58 1021.62 1021.87 1022.01 1022.28 1022.47 1022.56 1022.68 1022.65 1022.54 1022.51
1015.54 1014.83 1014.29 1014.48 1014.94 1015.42 1015.71 1015.84 1015.88 1015.61 1015.74 1015.75 1016.07 1016.17 1016.95 1018.30 1018.77 1018.86 1018.83 1018.77 1018.63 1018.72 1018.94 1019.22 1019.75 1019.83 1019.92 1020.04 1020.24 1020.58 1020.78 1020.91 1021.06 1021.25 1021.36 1021.46 1021.54 1021.61 1021.73 1021.90 1022.10 1022.29 1022.54 1022.68 1022.78 1022.94 1022.98 1022.81 1022.72
1014.98 1015.09 1014.35 1014.42 1015.10 1015.72 1016.02 1016.22 1016.07 1015.90 1016.02 1016.16 1016.14 1016.52 1017.81 1019.07 1019.14 1019.34 1019.27 1019.10 1018.98 1019.03 1019.36 1019.44 1019.87 1019.98 1019.97 1020.05 1020.17 1020.42 1020.73 1020.95 1021.08 1021.11 1021.33 1021.58 1021.70 1021.85 1022.08 1022.23 1022.39 1022.55 1022.66 1022.84 1023.00 1023.14 1023.14 1023.08 1023.03
1015.15 1014.93 1014.83 1014.91 1015.25 1015.66 1015.97 1016.52 1016.18 1016.12 1016.25 1016.54 1016.95 1016.86 1018.04 1018.90 1019.97 1019.88 1019.79 1019.66 1019.75 1019.82 1019.69 1019.71 1019.73 1020.08 1020.31 1020.25 1020.28 1020.37 1020.57 1020.84 1021.10 1021.22 1021.40 1021.63 1021.81 1022.03 1022.25 1022.43 1022.53 1022.67 1022.81 1023.03 1023.23 1023.29 1023.34 1023.38 1023.31
1015.97 1015.50 1015.41 1015.39 1015.39 1015.60 1016.23 1016.47 1016.68 1016.49 1016.71 1017.39 1017.61 1017.69 1018.70 1019.84 1020.53 1020.23 1020.15 1020.16 1020.28 1020.53 1020.57 1020.52 1020.22 1020.23 1020.18 1019.88 1020.37 1020.54 1020.60 1020.88 1021.12 1021.32 1021.46 1021.59 1021.85 1022.06 1022.27 1022.39 1022.55 1022.69 1022.84 1023.08 1023.30 1023.44 1023.56 1023.67 1023.75
1016.66 1015.60 1015.43 1015.54 1015.71 1015.88 1016.62 1016.58 1017.05 1017.40 1017.24 1017.81 1018.81 1019.55 1020.88 1021.13 1020.79 1020.38 1020.28 1020.30 1020.55 1020.78 1020.92 1020.89 1020.71 1020.65 1020.42 1020.30 1020.16 1020.59 1020.71 1020.85 1021.04 1021.16 1021.37 1021.62 1021.42 1021.81 1022.13 1022.29 1022.59 1022.79 1022.85 1022.95 1023.24 1023.48 1023.76 1023.82 1023.90
1016.36 1015.84 1015.85 1016.08 1016.04 1016.20 1016.81 1016.96 1017.20 1017.55 1017.75 1018.53 1019.52 1020.79 1021.46 1021.45 1021.24 1020.98 1020.91 1020.89 1021.05 1021.18 1021.28 1021.28 1021.04 1020.76 1020.65 1020.33 1020.28 1020.40 1020.42 1020.46 1020.46 1020.63 1020.89 1021.23 1021.31 1021.79 1022.27 1022.58 1022.79 1022.91 1022.99 1023.14 1023.21 1023.39 1023.50 1023.61 1023.56
1016.87 1016.32 1016.66 1016.78 1016.82 1016.97 1017.11 1017.33 1017.69 1017.84 1018.40 1019.26 1019.86 1021.00 1021.78 1021.88 1021.90 1021.87 1021.88 1021.97 1021.95 1021.85 1021.57 1021.55 1021.39 1021.18 1020.72 1020.22 1020.24 1020.43 1020.59 1020.43 1020.45 1020.61 1020.87 1021.20 1021.57 1021.99 1022.29 1022.57 1022.95 1023.07 1023.12 1023.13 1023.21 1023.40 1023.29 1023.31 1023.44
1016.98 1017.23 1017.22 1017.39 1017.55 1017.65 1017.58 1017.79 1017.99 1018.55 1019.67 1020.76 1021.38 1021.96 1022.24 1022.36 1022.58 1022.71 1022.67 1022.64 1022.49 1022.16 1021.95 1021.70 1021.52 1021.12 1020.90 1020.31 1020.12 1020.37 1020.60 1020.59 1020.72 1021.08 1021.27 1021.04 1021.27 1021.69 1022.02 1022.32 1022.53 1022.76 1023.04 1023.20 1023.55 1023.65 1023.61 1023.51 1023.64
1017.27 1017.42 1017.59 1017.72 1017.92 1017.98 1018.19 1018.07 1018.26 1019.27 1020.64 1021.54 1022.12 1022.52 1022.70 1022.94 1023.19 1023.34 1023.28 1023.05 1022.83 1022.51 1022.31 1022.03 1021.55 1021.05 1020.74 1020.55 1020.25 1020.66 1020.91 1021.10 1021.44 1021.70 1021.84 1021.75 1021.83 1021.61 1021.95 1022.43 1022.72 1022.78 1022.79 1022.74 1022.88 1023.52 1023.96 1023.84 1023.76
1017.61 1017.64 1017.55 1017.63 1017.75 1017.95 1018.06 1018.22 1018.82 1019.93 1021.06 1021.80 1022.43 1022.86 1023.28 1023.63 1023.83 1023.71 1023.68 1023.47 1023.27 1022.99 1022.67 1022.42 1022.20 1021.51 1020.60 1020.32 1020.78 1021.14 1021.48 1021.99 1022.39 1022.60 1022.62 1022.49 1022.38 1022.36 1022.59 1022.73 1022.97 1023.16 1023.47 1023.60 1023.76 1024.03 1024.08 1024.21 1024.29
1017.97 1017.60 1017.25 1017.19 1017.64 1017.78 1018.06 1018.46 1018.50 1019.59 1021.00 1021.88 1022.77 1023.43 1024.00 1024.30 1024.33 1024.36 1024.37 1024.14 1024.05 1023.64 1023.36 1023.11 1022.63 1022.03 1021.95 1022.14 1022.34 1022.54 1022.92 1023.08 1023.07 1023.19 1023.33 1023.30 1023.23 1023.15 1023.16 1023.30 1023.51 1023.84 1023.82 1023.81 1023.95 1024.23 1024.35 1024.32 1024.37
1017.90 1017.78 1017.03 1016.95 1017.47 1017.95 1018.22 1017.42 1018.45 1019.87 1020.78 1021.78 1022.80 1023.55 1024.06 1024.55 1024.73 1024.89 1024.96 1024.81 1024.68 1024.38 1024.04 1023.83 1023.45 1023.29 1023.02 1023.16 1023.64 1023.92 1024.12 1024.11 1024.30 1024.46 1024.56 1024.25 1024.14 1023.79 1023.92 1024.15 1024.36 1024.27 1024.29 1024.30 1024.31 1024.45 1024.44 1024.44 1024.31
1017.74 1016.87 1016.93 1016.87 1017.31 1017.65 1017.97 1017.37 1018.50 1019.87 1020.66 1021.59 1022.60 1023.37 1023.97 1024.42 1024.76 1025.08 1025.21 1025.07 1024.89 1024.64 1024.30 1024.18 1024.04 1024.05 1024.36 1024.32 1024.13 1024.69 1025.04 1024.91 1025.11 1025.24 1025.17 1025.20 1024.79 1024.57 1024.70 1024.78 1024.85 1024.69 1024.77 1024.79 1024.78 1024.84 1024.77 1024.75 1024.60
1016.66 1016.97 1016.97 1016.83 1017.27 1017.60 1017.58 1017.42 1018.59 1019.72 1020.58 1021.44 1022.52 1023.34 1024.02 1024.57 1025.16 1025.54 1025.58 1025.59 1025.35 1024.98 1024.67 1024.30 1024.07 1023.81 1023.87 1024.42 1025.01 1025.13 1025.58 1026.19 1026.48 1026.23 1026.10 1025.87 1025.67 1025.47 1025.31 1025.33 1025.27 1025.20 1025.22 1025.16 1024.98 1025.09 1025.08 1025.00 1024.78
1016.99 1016.99 1016.74 1017.16 1017.71 1017.79 1017.35 1017.32 1018.03 1019.55 1020.64 1021.53 1022.46 1023.28 1023.98 1024.78 1025.52 1025.83 1026.05 1026.00 1025.80 1025.58 1025.30 1025.32 1025.16 1025.17 1024.69 1024.82 1024.97 1025.63 1026.01 1026.77 1027.22 1027.43 1027.37 1027.20 1027.03 1026.85 1026.57 1026.37 1026.25 1025.89 1025.76 1026.08 1025.81 1025.46 1025.34 1025.26 1025.05
1017.69 1017.44 1017.12 1017.62 1018.10 1018.19 1017.55 1017.32 1017.60 1019.23 1019.88 1020.84 1021.96 1022.92 1023.76 1024.73 1025.43 1025.90 1026.00 1025.98 1025.88 1025.72 1025.55 1025.51 1025.54 1025.60 1025.55 1025.66 1025.78 1026.35 1026.97 1027.74 1028.08 1028.40 1028.38 1028.18 1028.12 1028.05 1027.68 1027.54 1027.54 1027.29 1026.93 1026.71 1026.78 1026.53 1025.87 1025.81 1025.76
1017.99 1017.72 1017.47 1017.89 1018.41 1018.49 1018.16 1016.96 1017.01 1018.71 1020.10 1021.29 1022.04 1022.68 1023.53 1023.98 1024.56 1025.20 1025.88 1026.20 1026.25 1026.26 1026.08 1025.77 1025.66 1025.46 1025.24 1025.75 1026.52 1027.13 1027.30 1027.78 1028.38 1028.76 1028.99 1029.16 1029.11 1029.04 1028.93 1028.79 1028.66 1028.51 1028.35 1028.14 1027.90 1027.76 1027.50 1026.87 1026.66
1017.91 1017.93 1018.27 1018.53 1018.80 1018.20 1018.40 1016.22 1016.37 1017.60 1019.31 1020.93 1022.00 1022.76 1023.53 1024.52 1025.26 1025.88 1026.06 1026.28 1026.86 1027.03 1026.92 1026.82 1026.71 1026.79 1026.62 1026.60 1026.46 1026.32 1027.33 1028.21 1029.10 1029.33 1029.63 1029.72 1029.70 1029.74 1029.72 1029.62 1029.38 1029.40 1029.40 1029.13 1029.00 1028.76 1028.44 1028.01 1027.82
1018.17 1018.48 1018.75 1018.96 1018.84 1018.90 1018.60 1018.30 1015.92 1017.59 1018.29 1019.78 1021.23 1022.42 1023.31 1024.23 1025.04 1025.80 1026.43 1026.63 1027.00 1027.14 1027.20 1027.11 1027.08 1027.28 1027.29 1027.21 1027.09 1027.23 1027.70 1028.53 1029.23 1029.82 1030.26 1030.43 1030.63 1030.73 1030.68 1030.40 1030.26 1030.04 1030.02 1030.16 1030.01 1029.61 1029.53 1029.02 1028.74
1019.02 1019.22 1019.55 1019.74 1019.51 1018.44 1017.73 1017.93 1015.28 1016.31 1016.65 1018.29 1020.53 1021.70 1022.75 1023.88 1024.78 1025.63 1026.64 1027.14 1027.40 1027.70 1027.65 1027.42 1027.48 1027.65 1027.54 1027.84 1027.90 1027.99 1028.44 1029.05 1029.54 1029.80 1030.34 1030.77 1031.07 1031.17 1031.31 1031.04 1030.88 1030.82 1030.49 1030.63 1030.48 1030.43 1030.28 1029.90 1029.57
1018.65 1018.81 1019.21 1019.49 1019.46 1017.71 1017.74 1017.70 1014.96 1015.66 1016.95 1017.89 1019.20 1021.00 1022.52 1023.82 1024.90 1025.60 1026.47 1027.01 1027.43 1027.62 1027.76 1027.83 1027.84 1028.12 1028.31 1028.31 1028.56 1028.63 1028.95 1029.23 1029.80 1029.99 1030.28 1030.60 1030.93 1031.28 1031.37 1031.51 1031.47 1031.26 1031.14 1030.98 1030.89 1030.72 1030.67 1030.44 1030.16
1017.93 1017.52 1017.59 1017.86 1018.28 1017.56 1018.16 1016.48 1015.19 1016.26 1017.25 1018.50 1019.08 1020.54 1022.03 1023.15 1024.23 1024.95 1025.60 1026.31 1026.94 1027.40 1027.45 1027.77 1028.08 1028.32 1028.52 1029.03 1028.99 1029.44 1029.44 1029.76 1030.19 1030.30 1030.56 1030.96 1031.26 1031.94 1031.99 1031.94 1031.87 1031.83 1031.75 1031.47 1031.38 1031.15 1031.13 1030.98 1030.66
1017.90 1017.72 1017.22 1017.94 1018.99 1017.99 1015.97 1015.37 1015.32 1016.41 1017.45 1018.61 1019.60 1020.71 1021.62 1022.60 1023.70 1024.52 1025.32 1026.06 1026.74 1027.20 1027.49 1027.78 1027.95 1028.58 1029.04 1029.00 1029.16 1029.60 1029.84 1029.96 1030.30 1030.78 1031.08 1031.29 1031.62 1032.26 1032.57 1032.63 1032.50 1032.42 1032.26 1031.90 1031.60 1031.39 1031.34 1031.20 1030.80
1016.81 1016.59 1017.59 1017.59 1017.24 1016.18 1014.52 1014.35 1013.74 1015.34 1016.29 1017.95 1019.26 1019.96 1020.99 1022.26 1023.30 1024.10 1024.81 1025.58 1026.40 1027.06 1027.49 1027.63 1028.04 1028.26 1028.58 1028.96 1029.27 1029.75 1030.08 1030.50 1030.72 1031.03 1031.22 1031.54 1031.76 1032.24 1032.29 1032.35 1032.48 1032.41 1032.28 1032.17 1031.68 1031.34 1031.26 1031.13 1030.77
1016.77 1016.36 1016.13 1015.80 1015.48 1014.71 1013.88 1012.55 1012.55 1013.28 1014.70 1016.20 1017.67 1018.86 1019.96 1021.15 1022.15 1023.02 1024.04 1025.14 1026.14 1026.78 1027.13 1027.51 1027.68 1028.40 1028.54 1028.72 1029.34 1029.56 1030.26 1030.75 1030.83 1031.17 1031.46 1031.35 1031.85 1032.21 1032.26 1032.39 1032.49 1032.40 1032.36 1032.16 1031.90 1031.73 1031.37 1031.16 1030.89
1015.15 1014.72 1014.68 1014.31 1014.84 1014.76 1014.34 1012.22 1012.84 1013.65 1014.41 1015.69 1016.81 1018.12 1019.27 1020.30 1021.25 1022.32 1023.43 1024.57 1025.37 1026.16 1026.70 1027.12 1027.60 1028.01 1028.28 1028.59 1028.93 1029.37 1029.90 1030.47 1030.81 1031.20 1031.65 1031.83 1031.96 1032.29 1032.31 1032.69 1032.36 1032.45 1032.26 1032.21 1032.05 1031.77 1031.38 1031.10 1030.78
Thickness
5751 5752 5755 5752 5732 5730 5707 5706 5718 5715 5718 5723 5723 5722 5722 5723 5714 5700 5724 5725 5722 5721 5717 5713 5711 5710 5707 5704 5701 5699 5697 5696 5694 5693 5693 5693 5693 5693 5692 5692 5693 5692 5693 5692 5692 5691 5690 5692 5692
5752 5754 5755 5744 5727 5715 5708 5716 5714 5719 5722 5724 5723 5723 5723 5713 5724 5722 5722 5720 5718 5719 5717 5714 5710 5708 5706 5704 5702 5700 5699 5697 5695 5693 5692 5691 5691 5690 5689 5689 5689 5688 5688 5687 5687 5686 5687 5688 5688
5751 5754 5747 5734 5722 5713 5710 5717 5721 5721 5723 5724 5722 5724 5722 5715 5722 5721 5720 5720 5718 5717 5715 5713 5709 5707 5705 5703 5700 5699 5698 5696 5695 5693 5691 5690 5689 5689 5688 5687 5686 5685 5684 5683 5681 5680 5681 5683 5684
5750 5751 5741 5730 5713 5713 5717 5721 5723 5722 5723 5723 5723 5719 5721 5718 5717 5716 5718 5718 5719 5717 5714 5711 5707 5706 5705 5702 5699 5697 5695 5694 5693 5691 5691 5690 5690 5689 5687 5686 5684 5682 5679 5678 5677 5676 5676 5678 5678
5750 5745 5727 5717 5710 5714 5718 5721 5722 5720 5721 5723 5721 5714 5714 5713 5715 5715 5715 5715 5716 5714 5712 5710 5706 5705 5703 5702 5700 5698 5695 5693 5692 5690 5689 5688 5687 5686 5685 5683 5680 5678 5676 5675 5674 5673 5672 5674 5675
5740 5737 5722 5712 5711 5712 5716 5719 5720 5720 5720 5721 5721 5717 5708 5709 5709 5709 5711 5712 5712 5711 5708 5707 5705 5704 5702 5701 5699 5697 5694 5692 5690 5689 5687 5685 5684 5682 5680 5678 5676 5675 5674 5673 5671 5670 5670 5671 5671
5733 5729 5715 5715 5711 5710 5715 5717 5717 5719 5718 5715 5719 5713 5712 5709 5702 5705 5705 5706 5705 5705 5704 5704 5703 5701 5700 5699 5698 5696 5694 5691 5688 5687 5685 5683 5681 5679 5676 5674 5673 5672 5671 5669 5669 5668 5668 5667 5667
5732 5727 5708 5711 5706 5709 5716 5716 5717 5718 5714 5717 5717 5710 5708 5702 5698 5701 5702 5701 5700 5698 5697 5697 5698 5698 5697 5698 5695 5693 5692 5689 5687 5684 5682 5680 5678 5676 5674 5673 5671 5669 5669 5667 5665 5664 5663 5662 5661
5726 5721 5709 5708 5706 5711 5713 5712 5714 5714 5714 5711 5704 5700 5690 5690 5696 5698 5699 5698 5696 5694 5692 5692 5692 5693 5693 5693 5693 5690 5689 5687 5686 5684 5682 5679 5678 5674 5672 5671 5668 5665 5664 5664 5662 5660 5658 5657 5657
5723 5717 5712 5716 5718 5713 5710 5710 5709 5708 5708 5705 5699 5690 5686 5688 5689 5690 5690 5690 5689 5688 5688 5687 5688 5689 5690 5691 5691 5690 5689 5687 5686 5684 5682 5679 5677 5673 5669 5666 5663 5660 5658 5657 5656 5656 5656 5653 5651
5711 5713 5708 5708 5711 5711 5707 5704 5706 5705 5700 5700 5699 5689 5682 5683 5682 5682 5681 5680 5680 5681 5684 5683 5684 5685 5687 5689 5688 5686 5684 5684 5682 5680 5678 5675 5672 5669 5665 5662 5659 5656 5654 5653 5651 5649 5649 5647 5646
5707 5704 5705 5703 5703 5701 5699 5702 5700 5699 5693 5683 5680 5678 5677 5677 5674 5673 5673 5673 5674 5676 5678 5679 5680 5683 5684 5686 5686 5684 5682 5680 5678 5675 5672 5672 5668 5665 5662 5658 5657 5654 5652 5649 5646 5643 5641 5640 5638
5702 5700 5699 5699 5696 5696 5693 5695 5697 5690 5679 5675 5672 5671 5670 5669 5667 5665 5666 5668 5669 5671 5672 5673 5675 5678 5679 5679 5680 5678 5675 5674 5670 5667 5665 5664 5661 5660 5656 5651 5648 5646 5645 5644 5643 5639 5636 5634 5632
5697 5695 5696 5696 5694 5692 5690 5691 5689 5679 5673 5670 5667 5665 5663 5660 5658 5661 5660 5662 5663 5664 5666 5666 5666 5670 5676 5677 5673 5670 5667 5662 5658 5655 5654 5654 5653 5651 5647 5643 5640 5637 5633 5631 5629 5626 5625 5624 5623
5688 5688 5694 5696 5690 5689 5687 5677 5683 5681 5670 5665 5659 5656 5652 5650 5651 5650 5650 5651 5650 5653 5654 5654 5658 5661 5660 5659 5658 5657 5653 5650 5650 5647 5644 5642 5640 5639 5637 5635 5631 5625 5624 5623 5621 5617 5616 5615 5612
5679 5679 5681 5689 5684 5680 5680 5690 5681 5671 5667 5662 5654 5651 5648 5643 5642 5641 5639 5641 5641 5643 5644 5643 5644 5644 5647 5645 5640 5637 5635 5633 5630 5628 5626 5628 5627 5628 5625 5621 5618 5616 5614 5610 5608 5605 5605 5604 5604
5670 5678 5673 5680 5680 5676 5674 5684 5675 5665 5664 5657 5651 5646 5643 5641 5638 5634 5633 5633 5634 5636 5638 5637 5637 5636 5631 5630 5632 5626 5622 5622 5619 5617 5616 5615 5615 5615 5611 5608 5605 5604 5601 5599 5596 5594 5592 5590 5590
5670 5663 5664 5671 5673 5667 5671 5677 5666 5659 5656 5653 5644 5639 5636 5633 5625 5622 5622 5621 5623 5625 5628 5630 5631 5631 5630 5622 5616 5614 5609 5602 5598 5599 5599 5599 5599 5598 5598 5595 5593 5590 5587 5585 5582 5580 5579 5577 5577
5667 5664 5668 5666 5660 5658 5668 5672 5670 5655 5648 5643 5639 5635 5630 5623 5615 5613 5611 5612 5613 5614 5616 5614 5614 5610 5613 5613 5611 5603 5599 5590 5584 5581 5579 5577 5577 5576 5575 5574 5572 5573 5572 5566 5565 5565 5563 5562 5562
5651 5653 5661 5656 5648 5647 5658 5659 5670 5649 5652 5648 5639 5632 5626 5616 5610 5605 5605 5606 5606 5607 5608 5606 5602 5599 5597 5595 5593 5587 5580 5572 5566 5563 5560 5558 5556 5554 5554 5552 5548 5547 5547 5547 5543 5543 5547 5544 5542
5642 5644 5654 5647 5637 5634 5637 5652 5663 5646 5634 5629 5629 5627 5621 5620 5614 5607 5599 5596 5596 5595 5595 5598 5597 5598 5598 5591 5580 5573 5570 5562 5554 5547 5542 5538 5534 5532 5529 5528 5526 5524 5522 5520 5520 5518 5517 5520 5519
5637 5641 5636 5630 5626 5630 5629 5644 5659 5655 5638 5624 5619 5616 5612 5603 5596 5591 5591 5589 5582 5581 5581 5580 5579 5575 5575 5573 5573 5574 5561 5549 5537 5533 5527 5523 5519 5515 5511 5507 5506 5502 5498 5498 5496 5494 5494 5495 5493
5634 5626 5624 5620 5619 5611 5617 5618 5659 5635 5641 5629 5619 5612 5606 5598 5591 5583 5578 5576 5573 5571 5569 5568 5566 5562 5559 5556 5555 5551 5545 5535 5525 5516 5509 5504 5498 5493 5488 5486 5483 5481 5478 5473 5471 5471 5468 5470 5470
5610 5610 5606 5600 5601 5601 5623 5619 5651 5651 5654 5642 5619 5610 5601 5590 5582 5576 5566 5561 5559 5556 5555 5555 5553 5549 5546 5539 5535 5532 5526 5517 5509 5504 5494 5486 5479 5474 5468 5465 5463 5459 5457 5452 5449 5447 5446 5446 5445
5611 5611 5598 5589 5586 5605 5598 5604 5650 5652 5635 5637 5623 5606 5593 5581 5572 5566 5558 5553 5548 5545 5542 5540 5537 5531 5526 5524 5518 5515 5508 5502 5492 5486 5480 5474 5466 5459 5454 5447 5441 5439 5436 5433 5429 5426 5423 5421 5420
5604 5615 5609 5592 5594 5611 5573 5601 5638 5624 5616 5610 5616 5605 5589 5580 5570 5563 5557 5549 5541 5536 5535 5528 5521 5515 5510 5502 5499 5491 5488 5481 5472 5466 5461 5453 5445 5435 5431 5426 5422 5417 5413 5410 5406 5403 5400 5397 5396
5593 5591 5609 5579 5530 5580 5614 5616 5629 5605 5604 5595 5594 5588 5582 5573 5562 5553 5545 5536 5527 5521 5516 5512 5507 5498 5491 5488 5483 5475 5470 5464 5457 5448 5439 5432 5425 5415 5406 5401 5397 5392 5388 5387 5383 5380 5377 5374 5373
5597 5603 5581 5581 5579 5587 5614 5614 5640 5612 5611 5591 5581 5580 5574 5561 5550 5542 5534 5524 5516 5508 5501 5498 5492 5487 5481 5474 5467 5458 5452 5442 5435 5427 5420 5412 5405 5395 5390 5384 5377 5372 5368 5364 5363 5361 5357 5353 5351
5583 5587 5588 5596 5593 5600 5611 5628 5632 5631 5618 5602 5591 5579 5571 5556 5545 5535 5524 5513 5502 5495 5489 5484 5481 5470 5466 5460 5451 5443 5432 5422 5415 5406 5399 5395 5385 5376 5371 5365 5359 5353 5348 5344 5340 5336 5333 5329 5326
5593 5597 5594 5596 5580 5583 5584 5622 5602 5605 5605 5597 5588 5571 5561 5550 5540 5527 5516 5503 5494 5483 5476 5471 5464 5457 5451 5445 5436 5425 5414 5403 5394 5385 5376 5370 5363 5356 5351 5342 5338 5332 5328 5322 5317 5313 5311 5307 5304